CW1461 Weather Reports


Display with metric or nautical units.
time (UTC)temp
F
wind
direction
speed
MPH
gust
MPH
rain 1hr
in
rain 24hr
in
rain mn
in
humidity
%
barometer
mb
20171118080111 45 254 2.0 12.0 0.00 0.00 0.00 83 1017.8
20171118075110 45 316 4.0 12.0 0.00 0.00 0.00 83 1017.8
20171118074111 45 257 4.0 12.0 0.00 0.00 0.00 83 1017.7
20171118073111 45 313 5.0 13.0 0.00 0.00 0.00 83 1017.7
20171118072110 45 302 4.0 14.0 0.00 0.00 0.00 84 1017.6
20171118071111 44 294 3.0 6.0 0.00 0.00 0.00 84 1017.6
20171118070111 44 300 2.0 7.0 0.00 0.00 0.00 84 1017.3
20171118064110 44 242 3.0 9.0 0.00 0.00 0.00 83 1017.2
20171118063111 44 258 3.0 9.0 0.00 0.00 0.00 83 1017.1
20171118062110 44 280 3.0 12.0 0.00 0.00 0.00 83 1017.0
20171118060111 45 261 4.0 9.0 0.00 0.00 0.00 83 1016.8
20171118055111 45 248 5.0 13.0 0.00 0.00 0.00 84 1016.8
20171118054111 45 325 4.0 10.0 0.00 0.00 0.00 84 1016.7
20171118052111 45 311 3.0 13.0 0.00 0.00 0.00 85 1016.6
20171118051110 45 301 4.0 9.0 0.00 0.00 0.00 84 1016.5
20171118050111 45 273 5.0 12.0 0.00 0.00 0.00 84 1016.6
20171118045110 45 252 5.0 10.0 0.00 0.00 0.00 84 1016.7
20171118044111 46 270 5.0 10.0 0.00 0.00 0.00 84 1016.8
20171118042110 45 238 5.0 12.0 0.00 0.00 0.00 84 1017.1
20171118041110 45 306 6.0 12.0 0.00 0.00 0.00 84 1016.9
20171118040111 45 269 7.0 14.0 0.00 0.00 0.00 84 1016.9
20171118035111 44 250 6.0 12.0 0.00 0.00 0.00 84 1016.9
20171118034111 44 232 5.0 10.0 0.00 0.00 0.00 84 1017.1
20171118033111 45 244 5.0 9.0 0.00 0.00 0.00 84 1017.1
20171118032110 45 250 5.0 12.0 0.00 0.00 0.00 84 1017.1
20171118030110 45 265 4.0 12.0 0.00 0.00 0.00 83 1017.3
20171118025111 45 232 4.0 12.0 0.00 0.00 0.00 82 1017.4
20171118024111 45 242 7.0 13.0 0.00 0.00 0.00 82 1017.4
20171118023111 45 255 7.0 12.0 0.00 0.00 0.00 82 1017.4
20171118022110 45 220 6.0 12.0 0.00 0.00 0.00 82 1017.5
20171118020112 46 253 7.0 13.0 0.00 0.00 0.00 82 1017.9
20171118015110 45 257 7.0 16.0 0.00 0.00 0.00 83 1018.0
20171118014110 45 229 8.0 13.0 0.00 0.00 0.00 84 1018.1
20171118013110 44 262 6.0 12.0 0.00 0.00 0.00 84 1018.2
20171118012111 44 250 5.0 10.0 0.00 0.00 0.00 85 1018.3
20171118011110 43 234 4.0 8.0 0.00 0.00 0.00 85 1018.3
20171118010110 43 259 1.0 6.0 0.00 0.00 0.00 84 1018.4
20171118005112 44 180 3.0 8.0 0.00 0.00 0.00 84 1018.6
20171118003110 44 155 3.0 8.0 0.00 0.00 0.00 84 1018.9
20171118002110 44 220 1.0 5.0 0.00 0.00 0.00 84 1019.1
20171118001116 44 185 2.0 5.0 0.00 0.00 0.00 84 1019.1
20171117235111 43 282 2.0 9.0 0.00 0.00 0.00 85 1019.1
20171117233111 43 215 5.0 10.0 0.00 0.00 0.00 86 1019.2
20171117232110 43 241 6.0 12.0 0.00 0.00 0.00 86 1019.2
20171117225110 43 248 4.0 9.0 0.00 0.00 0.00 85 1019.7
20171117224110 43 234 2.0 8.0 0.00 0.00 0.00 85 1019.8
20171117222110 43 213 3.0 12.0 0.00 0.00 0.00 86 1020.1
20171117220110 42 230 3.0 8.0 0.00 0.00 0.00 87 1020.2
20171117215111 42 202 4.0 12.0 0.00 0.00 0.00 87 1020.3
20171117213110 41 221 1.0 3.0 0.00 0.00 0.00 85 1020.5
20171117211110 42 180 3.0 7.0 0.00 0.00 0.00 85 1020.8
20171117205110 42 162 1.0 5.0 0.00 0.00 0.00 85 1021.0
20171117204111 43 227 2.0 7.0 0.00 0.00 0.00 84 1021.0
20171117203111 43 194 4.0 10.0 0.00 0.00 0.00 85 1021.0
20171117200110 42 148 2.0 7.0 0.00 0.00 0.00 84 1021.2
20171117195110 43 164 3.0 10.0 0.00 0.00 0.00 84 1021.1
20171117194111 43 230 3.0 8.0 0.00 0.00 0.00 83 1021.2
20171117193111 43 241 5.0 10.0 0.00 0.00 0.00 83 1021.5
20171117192110 43 228 5.0 12.0 0.00 0.00 0.00 83 1021.7
20171117185110 43 267 3.0 10.0 0.00 0.00 0.00 82 1022.0
20171117184111 43 242 5.0 12.0 0.00 0.00 0.00 82 1022.0
20171117183110 43 244 7.0 12.0 0.00 0.00 0.00 82 1021.9
20171117175110 43 235 5.0 12.0 0.00 0.00 0.00 81 1022.3
20171117173110 44 257 5.0 9.0 0.00 0.00 0.00 80 1022.6
20171117171110 44 257 5.0 10.0 0.00 0.00 0.00 80 1022.8
20171117170111 44 252 7.0 12.0 0.00 0.00 0.00 81 1022.8
20171117165110 44 263 6.0 10.0 0.00 0.00 0.00 81 1023.1
20171117161110 45 255 5.0 12.0 0.00 0.00 0.00 79 1023.1
20171117160111 45 247 6.0 12.0 0.00 0.00 0.00 78 1023.1
20171117155111 46 251 7.0 12.0 0.00 0.00 0.00 78 1023.2
20171117154111 46 248 6.0 9.0 0.00 0.00 0.00 77 1023.3
20171117152110 47 249 5.0 10.0 0.00 0.00 0.00 78 1023.4
20171117150110 46 246 5.0 12.0 0.00 0.00 0.00 79 1023.8
20171117145111 46 235 4.0 12.0 0.00 0.00 0.00 79 1023.8
20171117143110 46 247 2.0 7.0 0.00 0.00 0.00 78 1024.3
20171117141111 45 107 6.0 12.0 0.00 0.00 0.00 77 1023.6
20171117134111 45 278 6.0 12.0 0.00 0.00 0.00 79 1023.8
20171117133111 45 248 6.0 10.0 0.00 0.00 0.00 80 1023.8
20171117130110 44 219 3.0 6.0 0.00 0.00 0.00 82 1024.3
20171117125111 45 239 3.0 9.0 0.00 0.00 0.00 82 1024.4
20171117123110 44 235 2.0 6.0 0.00 0.00 0.00 83 1024.7
20171117121111 44 254 2.0 9.0 0.00 0.00 0.00 85 1024.9
20171117114110 44 249 1.0 5.0 0.00 0.00 0.00 87 1025.2
20171117113111 43 248 2.0 5.0 0.00 0.00 0.00 87 1025.2
20171117112111 43 121 2.0 9.0 0.00 0.00 0.00 88 1025.3
20171117111111 43 283 2.0 7.0 0.00 0.00 0.00 89 1025.5
20171117110111 43 124 2.0 6.0 0.00 0.00 0.00 89 1025.6
20171117105110 42 169 3.0 10.0 0.00 0.00 0.00 90 1025.6
20171117103111 41 183 3.0 10.0 0.00 0.00 0.00 92 1025.7
20171117102110 41 257 5.0 12.0 0.00 0.01 0.00 93 1025.8
20171117101111 40 163 3.0 9.0 0.00 0.01 0.00 93 1025.9
20171117100111 39 248 1.0 5.0 0.00 0.01 0.00 93 1025.9
20171117095113 39 240 2.0 7.0 0.00 0.01 0.00 94 1025.7
20171117094111 39 215 1.0 8.0 0.00 0.01 0.00 94 1025.6
20171117092113 37 192 1.0 3.0 0.00 0.02 0.00 94 1026.0
20171117091113 37 171 1.0 5.0 0.00 0.02 0.00 94 1026.1
20171117090111 36 190 2.0 5.0 0.00 0.02 0.00 94 1026.3
20171117085114 36 263 1.0 5.0 0.00 0.02 0.00 93 1026.3
20171117084111 35 265 1.0 5.0 0.00 0.02 0.00 94 1026.3
20171117082111 34 198 0.0 3.0 0.00 0.02 0.00 93 1026.3